When you browse on this site, cookies collect data to enhance your experience and personalize the content and advertising you see.
Visit our Privacy Policy to learn more. By continuing to use the site, you agree to this use of cookies and data.
  • In Denmark
  • List of Countries
  • For 7 days
  • Water Temperature
  • Weather Map
  • Weather Widgets
  • user-avatar
    Login

    Hourly Weather Hortolandia

    Today, 27 May, Wednesday

    Time Temperature Precipitation Wind Pressure Humidity
    00:00 +11°C° 0 mm 1 mps 708 mmHg 84%
    01:00 +11°C° 0 mm 1 mps 708 mmHg 85%
    02:00 +10°C° 0 mm 1 mps 708 mmHg 87%
    03:00 +10°C° 0 mm 1 mps 708 mmHg 88%
    04:00 +10°C° 0 mm 1 mps 708 mmHg 88%
    05:00 +9°C° 0 mm 1 mps 708 mmHg 89%
    06:00 +9°C° 0 mm 1 mps 708 mmHg 90%
    07:00 +11°C° 0 mm 1 mps 709 mmHg 84%
    08:00 +12°C° 0 mm 1 mps 710 mmHg 78%
    09:00 +14°C° 0 mm 1 mps 710 mmHg 72%
    10:00 +16°C° 0 mm 1 mps 710 mmHg 66%
    11:00 +19°C° 0 mm 1 mps 710 mmHg 60%
    12:00 +20°C° 0 mm 1 mps 711 mmHg 53%
    13:00 +21°C° 0 mm 1 mps 710 mmHg 51%
    14:00 +22°C° 0 mm 1 mps 710 mmHg 49%
    15:00 +22°C° 0 mm 1 mps 709 mmHg 47%
    16:00 +20°C° 0 mm 1 mps 709 mmHg 53%
    17:00 +18°C° 0 mm 1 mps 709 mmHg 59%
    18:00 +15°C° 0 mm 1 mps 710 mmHg 65%
    19:00 +15°C° 0 mm 1 mps 710 mmHg 67%
    20:00 +14°C° 0 mm 1 mps 710 mmHg 70%
    21:00 +13°C° 0 mm 2 mps 710 mmHg 73%
    22:00 +13°C° 0 mm 2 mps 710 mmHg 78%
    23:00 +12°C° 0 mm 2 mps 710 mmHg 83%

    Tomorrow, 28 May, Thursday

    Time Temperature Precipitation Wind Pressure Humidity
    00:00 +12°C° 0 mm 2 mps 710 mmHg 88%
    01:00 +12°C° 0 mm 2 mps 710 mmHg 89%
    02:00 +10°C° 0 mm 2 mps 710 mmHg 90%
    03:00 +10°C° 0 mm 2 mps 709 mmHg 91%
    04:00 +9°C° 0 mm 2 mps 710 mmHg 92%
    05:00 +9°C° 0 mm 2 mps 710 mmHg 92%
    06:00 +8°C° 0 mm 2 mps 710 mmHg 93%
    07:00 +10°C° 0 mm 2 mps 711 mmHg 88%
    08:00 +12°C° 0 mm 2 mps 711 mmHg 82%
    09:00 +14°C° 0 mm 2 mps 712 mmHg 77%
    10:00 +16°C° 0 mm 2 mps 712 mmHg 68%
    11:00 +18°C° 0 mm 2 mps 712 mmHg 60%
    12:00 +22°C° 0 mm 1 mps 712 mmHg 51%
    13:00 +22°C° 0 mm 1 mps 711 mmHg 49%
    14:00 +23°C° 0 mm 1 mps 711 mmHg 46%
    15:00 +24°C° 0 mm 1 mps 710 mmHg 44%
    16:00 +22°C° 0 mm 1 mps 710 mmHg 50%
    17:00 +20°C° 0 mm 1 mps 710 mmHg 55%
    18:00 +18°C° 0 mm 1 mps 710 mmHg 60%
    19:00 +16°C° 0 mm 1 mps 710 mmHg 63%
    20:00 +15°C° 0 mm 1 mps 710 mmHg 66%
    21:00 +14°C° 0 mm 2 mps 710 mmHg 69%
    22:00 +14°C° 0 mm 2 mps 710 mmHg 72%
    23:00 +13°C° 0 mm 2 mps 710 mmHg 75%

    Day after tomorrow, 29 May, Friday

    Time Temperature Precipitation Wind Pressure Humidity
    00:00 +13°C° 0 mm 2 mps 710 mmHg 79%
    01:00 +12°C° 0 mm 1 mps 710 mmHg 81%
    02:00 +12°C° 0 mm 1 mps 710 mmHg 83%
    03:00 +12°C° 0 mm 1 mps 709 mmHg 85%
    04:00 +11°C° 0 mm 1 mps 710 mmHg 85%
    05:00 +11°C° 0 mm 1 mps 710 mmHg 85%
    06:00 +11°C° 0 mm 1 mps 710 mmHg 85%
    07:00 +13°C° 0 mm 1 mps 711 mmHg 79%
    08:00 +14°C° 0 mm 1 mps 711 mmHg 73%
    09:00 +16°C° 0 mm 2 mps 711 mmHg 67%
    10:00 +18°C° 0 mm 2 mps 711 mmHg 61%
    11:00 +20°C° 0 mm 2 mps 711 mmHg 54%
    12:00 +23°C° 0 mm 2 mps 711 mmHg 47%
    13:00 +24°C° 0 mm 2 mps 711 mmHg 46%
    14:00 +25°C° 0 mm 2 mps 710 mmHg 44%
    15:00 +25°C° 0 mm 2 mps 710 mmHg 43%
    16:00 +23°C° 0 mm 1 mps 710 mmHg 50%
    17:00 +21°C° 0 mm 1 mps 710 mmHg 58%
    18:00 +19°C° 0 mm 1 mps 710 mmHg 65%
    19:00 +18°C° 0 mm 1 mps 710 mmHg 68%
    20:00 +16°C° 0 mm 1 mps 710 mmHg 70%
    21:00 +16°C° 0 mm 1 mps 710 mmHg 72%
    22:00 +15°C° 0 mm 1 mps 710 mmHg 75%
    23:00 +15°C° 0 mm 1 mps 710 mmHg 77%

    30 May, Saturday

    Time Temperature Precipitation Wind Pressure Humidity
    00:00 +14°C° 0 mm 1 mps 710 mmHg 80%
    01:00 +14°C° 0 mm 1 mps 710 mmHg 82%
    02:00 +14°C° 0 mm 1 mps 709 mmHg 84%
    03:00 +13°C° 0 mm 1 mps 709 mmHg 86%
    04:00 +13°C° 0 mm 1 mps 709 mmHg 86%
    05:00 +13°C° 0 mm 1 mps 709 mmHg 86%
    06:00 +12°C° 0 mm 2 mps 709 mmHg 85%
    07:00 +14°C° 0 mm 2 mps 710 mmHg 80%
    08:00 +16°C° 0 mm 2 mps 711 mmHg 74%
    09:00 +17°C° 0 mm 2 mps 711 mmHg 68%
    10:00 +19°C° 0 mm 2 mps 711 mmHg 63%
    11:00 +21°C° 0 mm 2 mps 711 mmHg 59%
    12:00 +24°C° 0 mm 3 mps 711 mmHg 54%
    13:00 +25°C° 0 mm 3 mps 711 mmHg 53%
    14:00 +25°C° 0 mm 3 mps 710 mmHg 52%
    15:00 +26°C° 0 mm 3 mps 709 mmHg 51%
    16:00 +24°C° 0 mm 2 mps 709 mmHg 58%
    17:00 +22°C° 0 mm 1 mps 709 mmHg 66%
    18:00 +20°C° 0 mm 1 mps 709 mmHg 74%
    19:00 +19°C° 0 mm 1 mps 709 mmHg 76%
    20:00 +18°C° 0 mm 1 mps 709 mmHg 79%
    21:00 +18°C° 0 mm 1 mps 710 mmHg 82%
    22:00 +16°C° 0 mm 1 mps 709 mmHg 84%
    23:00 +16°C° 0 mm 1 mps 709 mmHg 85%

    31 May, Sunday

    Time Temperature Precipitation Wind Pressure Humidity
    00:00 +15°C° 0 mm 1 mps 709 mmHg 87%
    01:00 +15°C° 0 mm 1 mps 709 mmHg 87%
    02:00 +14°C° 0 mm 1 mps 709 mmHg 88%
    03:00 +14°C° 0 mm 1 mps 708 mmHg 88%
    04:00 +14°C° 0 mm 1 mps 709 mmHg 89%
    05:00 +13°C° 0 mm 1 mps 709 mmHg 89%
    06:00 +13°C° 0 mm 1 mps 709 mmHg 89%
    07:00 +15°C° 0 mm 1 mps 710 mmHg 84%
    08:00 +16°C° 0 mm 1 mps 710 mmHg 79%
    09:00 +19°C° 0 mm 1 mps 711 mmHg 74%
    10:00 +20°C° 0 mm 1 mps 711 mmHg 68%
    11:00 +22°C° 0 mm 1 mps 711 mmHg 62%
    12:00 +24°C° 0 mm 2 mps 711 mmHg 56%
    13:00 +24°C° 0 mm 2 mps 710 mmHg 54%
    14:00 +25°C° 0 mm 2 mps 710 mmHg 52%
    15:00 +25°C° 0 mm 2 mps 709 mmHg 49%
    16:00 +24°C° 0 mm 2 mps 709 mmHg 55%
    17:00 +22°C° 0 mm 1 mps 709 mmHg 61%
    18:00 +18°C° 0 mm 0 mps 709 mmHg 67%
    19:00 +19°C° 0 mm 1 mps 709 mmHg 69%
    20:00 +19°C° 0 mm 1 mps 710 mmHg 71%
    21:00 +18°C° 0 mm 1 mps 710 mmHg 73%
    22:00 +18°C° 0 mm 1 mps 710 mmHg 76%
    23:00 +16°C° 0 mm 2 mps 710 mmHg 78%

    1 June, Monday

    Time Temperature Precipitation Wind Pressure Humidity
    00:00 +16°C° 0 mm 2 mps 710 mmHg 80%
    01:00 +15°C° 0 mm 2 mps 710 mmHg 83%
    02:00 +15°C° 0 mm 2 mps 709 mmHg 86%
    03:00 +15°C° 0 mm 2 mps 709 mmHg 89%
    04:00 +14°C° 0 mm 2 mps 709 mmHg 89%
    05:00 +14°C° 0 mm 2 mps 709 mmHg 90%
    06:00 +14°C° 0 mm 2 mps 709 mmHg 91%
    07:00 +15°C° 0 mm 2 mps 710 mmHg 85%
    08:00 +17°C° 0 mm 2 mps 710 mmHg 79%
    09:00 +18°C° 0 mm 2 mps 711 mmHg 73%
    10:00 +20°C° 0 mm 2 mps 711 mmHg 66%
    11:00 +23°C° 0 mm 2 mps 711 mmHg 59%
    12:00 +25°C° 0 mm 3 mps 711 mmHg 52%
    13:00 +25°C° 0 mm 3 mps 710 mmHg 51%
    14:00 +26°C° 0 mm 2 mps 709 mmHg 50%
    15:00 +26°C° 0 mm 2 mps 709 mmHg 49%
    16:00 +25°C° 0 mm 2 mps 709 mmHg 55%
    17:00 +23°C° 0 mm 1 mps 709 mmHg 61%
    18:00 +21°C° 0 mm 1 mps 708 mmHg 67%
    19:00 +20°C° 0 mm 1 mps 708 mmHg 70%
    20:00 +20°C° 0 mm 1 mps 708 mmHg 73%
    21:00 +19°C° 0 mm 1 mps 708 mmHg 76%
    22:00 +19°C° 0 mm 1 mps 708 mmHg 77%
    23:00 +17°C° 0 mm 2 mps 707 mmHg 79%
    Show more